Overview Statistics Trail Chart Weather Telemetry Raw packets
 

This is the latest recevied weather packets stored in our database for station/object KK7MLS-13. If no packets are shown the sender has not sent any weather packets the latest 10 day(s).

<< 76 77 78 79 80 81 82 >>
Time Temp. Humidity Pressure Rain* Wind** Luminosity Snow
1788126526 25° C 44% 1019.1 hPa 0 mm - 618 W/m² -
1788126221 24.44° C 44% 1019.2 hPa 0 mm - 624 W/m² -
1788125921 23.89° C 48% 1019.3 hPa 0 mm - 632 W/m² -
1788125616 23.89° C 45% 1019.3 hPa 0 mm - 632 W/m² -
1788125312 23.33° C 48% 1019.3 hPa 0 mm - 650 W/m² -
1788125008 23.89° C 44% 1019.5 hPa 0 mm - 655 W/m² -
1788124706 23.89° C 46% 1019.4 hPa 0 mm - 653 W/m² -
1788124401 22.22° C 53% 1019.7 hPa 0 mm - 661 W/m² -
1788124097 22.78° C 47% 1019.6 hPa 0 mm - 310 W/m² -
1788123796 22.78° C 49% 1019.7 hPa 0 mm - 677 W/m² -
1788123494 23.33° C 46% 1019.6 hPa 0 mm - 717 W/m² -
1788123188 22.78° C 49% 1019.8 hPa 0 mm - 697 W/m² -
1788122883 22.22° C 47% 1019.8 hPa 0 mm - 716 W/m² -
1788122582 23.33° C 45% 1019.9 hPa 0 mm - 711 W/m² -
1788122278 22.22° C 46% 1019.9 hPa 0 mm - 695 W/m² -
1788121974 22.22° C 48% 1020 hPa 0 mm - 715 W/m² -
1788121669 21.67° C 48% 1020.1 hPa 0 mm - 410 W/m² -
1788121363 21.67° C 53% 1020.2 hPa 0 mm - 823 W/m² -
1788121062 21.67° C 51% 1020.3 hPa 0 mm - 257 W/m² -
1788120757 22.22° C 48% 1020.3 hPa 0 mm - 697 W/m² -
1788120453 21.67° C 49% 1020.3 hPa 0 mm - 755 W/m² -
1788120152 21.11° C 53% 1020.4 hPa 0 mm - 717 W/m² -
1788119848 20.56° C 54% 1020.4 hPa 0 mm - 785 W/m² -
1788119546 21.67° C 51% 1020.5 hPa 0 mm - 243 W/m² -
1788119245 21.67° C 51% 1020.3 hPa 0 mm - 257 W/m² -

* Rain latest hour (hover to see other rain measurements)
** Current wind speed in m/s (hover to see current wind gust speed)